Regional Weather Roundup
Issued by NWS

Home | Current Version | Previous Version | Text Only | Print | Product List | Glossary Off
Versions: 1 2 3 4 5 6 7 8 9 10 11 12 13 14 15 16 17 18 19 20 21 22 23 24 25 26 27 28 29 30 31 32 33 34 35 36 37 38 39 40 41 42 43 44 45 46 47 48 49 50

000
ASUS43 KLMK 101402
RWRKY
KENTUCKY REGIONAL WEATHER ROUNDUP
NATIONAL WEATHER SERVICE LOUISVILLE KY
1000 AM EDT THU JUL 10 2014

NOTE "FAIR" INDICATES FEW OR NO CLOUDS BELOW 12,000 FEET
WITH NO SIGNIFICANT WEATHER AND/OR OBSTRUCTIONS TO VISIBILITY.

KYZ001>023-026-027-061>063-070>075-101500-
WESTERN AND SOUTH CENTRAL KENTUCKY

CITY           SKY/WX    TMP DP  RH WIND       PRES   REMARKS
PADUCAH        SUNNY     79  64  60 E6        30.10R
HENDERSON      SUNNY    N/A N/A N/A MISG        N/A
OWENSBORO      SUNNY     76  61  59 N8        30.11R
HOPKINSVILLE   DRIZZLE   78  65  63 VRB1      30.10R
BOWLING GREEN  SUNNY     78  64  61 CALM      30.11R
GLASGOW        NOT AVBL
$$

KYZ024-025-028>034-038-045-046-053-101500-
NORTH CENTRAL KENTUCKY

CITY           SKY/WX    TMP DP  RH WIND       PRES   REMARKS
LOUISVILLE/SDF MOSUNNY   77  61  57 VRB5      30.10R
LOUISVILLE/LOU SUNNY     77  60  55 N3        30.11R
FORT KNOX      SUNNY     75  64  67 VRB6      30.10R
$$

KYZ035>037-039>044-047>052-055>060-089>105-101500-
NORTHEAST KENTUCKY

CITY           SKY/WX    TMP DP  RH WIND       PRES   REMARKS
LEXINGTON      MOSUNNY   78  62  57 CALM      30.11S
COVINGTON      MOSUNNY   73  59  61 CALM      30.11R
FRANKFORT      SUNNY     75  63  66 N3        30.10R
$$

KYZ054-064>069-076>088-106>120-101500-
SOUTHEAST KENTUCKY

CITY           SKY/WX    TMP DP  RH WIND       PRES   REMARKS
JACKSON        SUNNY     74  62  66 CALM      30.12R
LONDON         MOSUNNY   74  63  68 CALM      30.12R
SOMERSET       SUNNY     72  61  68 CALM      30.12S
MIDDLESBORO    CLOUDY    71  67  89 CALM      30.13R
MONTICELLO     SUNNY     77  68  73 CALM      30.12S
$$



USA.gov is the U.S. government's official web portal to all federal, state and local government web resources and services.